Weather History for Knoxville, IA

Change the Weather History Date:

Saturday, November 9, 2013

  Actual Average Record
Temperature  
Mean Temperature 49 °F -  
Max Temperature 57 °F 51 °F 78 °F (1999)
Min Temperature 41 °F 33 °F 15 °F (1991)
Degree Days  
Heating Degree Days 16    
Moisture  
Dew Point 34 °F    
Average Humidity 57    
Maximum Humidity 76    
Minimum Humidity 38    
Precipitation  
Precipitation 0.00 in - - ()
Sea Level Pressure  
Sea Level Pressure 30.05 in    
Wind  
Wind Speed 13 mph (WNW)    
Max Wind Speed 23 mph    
Max Gust Speed 28 mph    
Visibility 10 miles    
Events      
Averages and records for this station are not official NWS values.
T = Trace of Precipitation, MM = Missing Value Source: NWS Daily Summary

Daily Weather History Graph

Daily Weather History Graph

Search for Another Location

Airport:

Trip Planner

Search our weather history database for the weather conditions in past years. The results will help you decide how hot, cold, wet, or windy it might be!

Date:

Astronomy

Nov. 09, 2013 Rise Set
Actual Time 6:53 AM CST 4:58 PM CST
Civil Twilight 6:24 AM CST 5:27 PM CST
Nautical Twilight 5:51 AM CST 6:00 PM CST
Astronomical Twilight 5:18 AM CST 6:33 PM CST
Moon 12:30 PM CST (11/9) 11:30 PM CST (11/9)
Length of Visible Light 11h 03m
Length of Day
10h 04m
Waxing Crescent, 44% of the Moon is Illuminated
Nov 9
Waxing Crescent
Nov 9
First Quarter
Nov 17
Full
Nov 25
Last Quarter
Dec 2
New

Hourly Weather History & Observations

Time (CST) Temp. Windchill Dew Point Humidity Pressure Visibility Wind Dir Wind Speed Gust Speed Precip Events Conditions
12:15 AM 51.8 °F - 33.8 °F 50% 29.85 in 10.0 mi WSW 15.0 mph - N/A   Clear
12:35 AM 50.0 °F - 33.8 °F 54% 29.86 in 10.0 mi WSW 13.8 mph 20.7 mph N/A   Clear
12:55 AM 50.0 °F - 33.8 °F 54% 29.86 in 10.0 mi WSW 12.7 mph - N/A   Clear
1:15 AM 50.0 °F - 33.8 °F 54% 29.86 in 10.0 mi WSW 13.8 mph - N/A   Clear
1:35 AM 48.2 °F - 33.8 °F 58% 29.87 in 10.0 mi WSW 13.8 mph - N/A   Clear
1:55 AM 48.2 °F - 33.8 °F 58% 29.88 in 10.0 mi WSW 11.5 mph 17.3 mph N/A   Clear
2:15 AM 48.2 °F - 33.8 °F 58% 29.88 in 10.0 mi WSW 11.5 mph - N/A   Clear
2:35 AM 46.4 °F 41.1 °F 33.8 °F 62% 29.89 in 10.0 mi WSW 11.5 mph - N/A   Clear
2:55 AM 46.4 °F 41.5 °F 33.8 °F 62% 29.89 in 10.0 mi WSW 10.4 mph - N/A   Clear
3:15 AM 46.4 °F 42.4 °F 33.8 °F 62% 29.89 in 10.0 mi SW 8.1 mph - N/A   Clear
3:35 AM 44.6 °F 40.2 °F 33.8 °F 66% 29.90 in 10.0 mi SW 8.1 mph - N/A   Clear
3:55 AM 44.6 °F 40.2 °F 33.8 °F 66% 29.90 in 10.0 mi SW 8.1 mph - N/A   Clear
4:15 AM 42.8 °F 38.0 °F 33.8 °F 70% 29.91 in 10.0 mi SW 8.1 mph - N/A   Clear
4:35 AM 44.6 °F 39.7 °F 33.8 °F 66% 29.91 in 10.0 mi WSW 9.2 mph - N/A   Clear
4:55 AM 42.8 °F 36.6 °F 33.8 °F 70% 29.92 in 10.0 mi West 11.5 mph - N/A   Clear
5:15 AM 42.8 °F 36.6 °F 33.8 °F 70% 29.92 in 10.0 mi WSW 11.5 mph - N/A   Clear
5:35 AM 42.8 °F 36.6 °F 33.8 °F 70% 29.93 in 10.0 mi WSW 11.5 mph - N/A   Clear
5:55 AM 42.8 °F 37.0 °F 33.8 °F 70% 29.94 in 10.0 mi WSW 10.4 mph - N/A   Clear
6:15 AM 42.8 °F 39.3 °F 33.8 °F 70% 29.94 in - WSW 5.8 mph - N/A   Clear
6:35 AM 41.0 °F 35.8 °F 32.0 °F 70% 29.95 in 10.0 mi SW 8.1 mph - N/A   Clear
6:55 AM 41.0 °F 36.4 °F 32.0 °F 70% 29.97 in 10.0 mi SW 6.9 mph - N/A   Clear
7:15 AM 41.0 °F 34.7 °F 33.8 °F 76% 29.97 in 10.0 mi West 10.4 mph - N/A   Clear
7:35 AM 42.8 °F 36.2 °F 33.8 °F 70% 29.98 in 10.0 mi West 12.7 mph - N/A   Clear
7:55 AM 44.6 °F 38.4 °F 33.8 °F 66% 29.99 in 10.0 mi WSW 12.7 mph - N/A   Clear
8:15 AM 46.4 °F 40.4 °F 33.8 °F 62% 30.00 in 10.0 mi West 13.8 mph - N/A   Clear
8:35 AM 48.2 °F - 33.8 °F 58% 30.01 in 10.0 mi West 16.1 mph - N/A   Clear
8:55 AM 50.0 °F - 33.8 °F 54% 30.02 in 10.0 mi WNW 15.0 mph - N/A   Clear
9:15 AM 51.8 °F - 32.0 °F 47% 30.02 in 10.0 mi WNW 21.9 mph - N/A   Clear
9:35 AM 51.8 °F - 33.8 °F 50% 30.02 in 10.0 mi WNW 18.4 mph - N/A   Clear
9:55 AM 51.8 °F - 33.8 °F 50% 30.03 in 10.0 mi NW 19.6 mph - N/A   Clear
10:15 AM 53.6 °F - 33.8 °F 47% 30.04 in 10.0 mi WNW 17.3 mph 23.0 mph N/A   Clear
10:35 AM 53.6 °F - 35.6 °F 51% 30.05 in 10.0 mi WNW 19.6 mph 26.5 mph N/A   Clear
10:55 AM 55.4 °F - 35.6 °F 47% 30.06 in 10.0 mi WNW 23.0 mph - N/A   Clear
11:15 AM 55.4 °F - 35.6 °F 47% 30.06 in 10.0 mi WNW 20.7 mph - N/A   Clear
11:35 AM 55.4 °F - 37.4 °F 51% 30.06 in 10.0 mi WNW 18.4 mph 27.6 mph N/A   Clear
11:55 AM 57.2 °F - 35.6 °F 44% 30.06 in 10.0 mi WNW 20.7 mph - N/A   Clear
12:15 PM 57.2 °F - 35.6 °F 44% 30.07 in 10.0 mi WNW 19.6 mph 27.6 mph N/A   Clear
12:35 PM 57.2 °F - 35.6 °F 44% 30.07 in 10.0 mi WNW 23.0 mph - N/A   Clear
12:55 PM 57.2 °F - 35.6 °F 44% 30.07 in 10.0 mi WNW 17.3 mph 27.6 mph N/A   Clear
1:15 PM 57.2 °F - 33.8 °F 41% 30.07 in 10.0 mi West 19.6 mph 27.6 mph N/A   Clear
1:35 PM 57.2 °F - 33.8 °F 41% 30.08 in 10.0 mi WNW 17.3 mph 25.3 mph N/A   Clear
1:55 PM 57.2 °F - 33.8 °F 41% 30.08 in 10.0 mi WNW 15.0 mph 24.2 mph N/A   Clear
2:15 PM 57.2 °F - 32.0 °F 38% 30.09 in 10.0 mi WNW 19.6 mph - N/A   Clear
2:35 PM 57.2 °F - 32.0 °F 38% 30.09 in 10.0 mi WNW 18.4 mph 26.5 mph N/A   Clear
2:55 PM 57.2 °F - 32.0 °F 38% 30.10 in 10.0 mi WNW 16.1 mph 25.3 mph N/A   Clear
3:15 PM 57.2 °F - 33.8 °F 41% 30.10 in 10.0 mi WNW 12.7 mph 21.9 mph N/A   Clear
3:35 PM 57.2 °F - 33.8 °F 41% 30.10 in 10.0 mi NW 17.3 mph - N/A   Clear
3:55 PM 57.2 °F - 32.0 °F 38% 30.11 in 10.0 mi WNW 17.3 mph - N/A   Clear
4:15 PM 57.2 °F - 33.8 °F 41% 30.11 in 10.0 mi WNW 13.8 mph - N/A   Clear
4:35 PM 55.4 °F - 33.8 °F 44% 30.12 in 10.0 mi WNW 10.4 mph - N/A   Clear
5:15 PM 51.8 °F - 33.8 °F 50% 30.13 in 10.0 mi WNW 11.5 mph - N/A   Clear
5:35 PM 50.0 °F - 33.8 °F 54% 30.14 in 10.0 mi WNW 8.1 mph - N/A   Clear
5:55 PM 48.2 °F - 33.8 °F 58% 30.15 in 10.0 mi NW 8.1 mph - N/A   Clear
6:15 PM 48.2 °F - 33.8 °F 58% 30.16 in 10.0 mi WNW 9.2 mph - N/A   Clear
6:35 PM 48.2 °F - 33.8 °F 58% 30.17 in 10.0 mi WNW 10.4 mph - N/A   Clear
6:55 PM 48.2 °F - 33.8 °F 58% 30.18 in 10.0 mi NW 8.1 mph - N/A   Clear
7:15 PM 46.4 °F 41.9 °F 33.8 °F 62% 30.19 in 10.0 mi NW 9.2 mph - N/A   Clear
7:35 PM 44.6 °F 40.2 °F 33.8 °F 66% 30.20 in 10.0 mi NW 8.1 mph - N/A   Clear
8:35 PM 46.4 °F 40.7 °F 33.8 °F 62% 30.23 in 10.0 mi NW 12.7 mph - N/A   Clear
8:55 PM 44.6 °F 38.1 °F 33.8 °F 66% 30.24 in 10.0 mi NNW 13.8 mph - N/A   Clear
9:15 PM 44.6 °F 38.8 °F 32.0 °F 61% 30.24 in 10.0 mi NW 11.5 mph - N/A   Clear
9:35 PM 42.8 °F 37.0 °F 32.0 °F 66% 30.25 in 10.0 mi NW 10.4 mph 16.1 mph N/A   Clear
9:55 PM 42.8 °F 37.5 °F 32.0 °F 66% 30.25 in 10.0 mi NW 9.2 mph - N/A   Clear
10:15 PM 42.8 °F 36.6 °F 32.0 °F 66% 30.26 in 10.0 mi NW 11.5 mph - N/A   Clear
10:35 PM 42.8 °F 36.6 °F 32.0 °F 66% 30.27 in 10.0 mi NW 11.5 mph 21.9 mph N/A   Clear
10:55 PM 42.8 °F 36.6 °F 32.0 °F 66% 30.28 in 10.0 mi NW 11.5 mph - N/A   Clear
11:15 PM 42.8 °F 37.0 °F 32.0 °F 66% 30.28 in 10.0 mi NW 10.4 mph 19.6 mph N/A   Clear
11:35 PM 41.0 °F 33.5 °F 30.2 °F 65% 30.29 in 10.0 mi NW 13.8 mph - N/A   Clear
11:55 PM 41.0 °F 34.3 °F 28.4 °F 61% 30.29 in 10.0 mi NW 11.5 mph - N/A   Clear